Flag for Iceland Weather past 2 weeks in Keflavík, Iceland

Now
45 °F

Passing clouds.


Feels Like: 38 °F
Forecast: N/A
Wind: 13 mph from Northwest

Location: Keflavikurflugvollur

Current Time: Sep 3, 2015 at 11:58:28 PM

Latest Report: Sep 3, 2015 at 11:30 PM


Visibility: N/A

Pressure: 30.27 "Hg

Humidity: 93%

Dew point: 43 °F

Location of KeflavíkLocation

Historic Weather in Keflavík — Graph

°F

Keflavík temperature yesterday

Maximum temperature yesterday: 52 °F (at 3:30 PM)
Minimum temperature yesterday: 46 °F (at 3:30 AM)
Average temperature yesterday: 49 °F

Past Weeks' High & Low Weather Summary

 TemperatureHumidityPressure
High63 °F (Aug 25, 11:00 AM)100% (Aug 20, 9:00 PM)30.36 "Hg (Aug 20, 9:00 PM)
Low43 °F (Aug 28, 11:30 PM)62% (Aug 29, 6:00 PM)29.18 "Hg (Aug 27, 4:00 AM)
Average50 °F87%29.77 "Hg
* Reported Aug 19 11:00 PM — Sep 3 11:00 PM, Keflavík, Weather by CustomWeather, © 2015

Note: Actual official high and low records may vary slightly from our data, if they occured in-between our weather recording intervals... More about our weather records

Advertising

Keflavík weather history for previous 24 hours

 ConditionsComfort  
Time TempWeatherWind HumidityBarometerVisibility
11:00 PM
Thu, Sep 3
45 °FPassing clouds.12 mph93%30.27 "HgN/A
10:30 PM46 °FClear.13 mph87%30.24 "Hg10 mi
9:00 PM46 °FPassing clouds.16 mph87%30.21 "HgN/A
8:30 PM46 °FScattered clouds.16 mph87%30.21 "HgN/A
8:00 PM46 °FPartly sunny.17 mph93%30.21 "HgN/A
7:30 PM46 °FPartly sunny.16 mph93%30.21 "HgN/A
7:01 PM48 °FPartly sunny.16 mph87%30.21 "HgN/A
6:30 PM48 °FPartly sunny.16 mph87%30.21 "HgN/A
6:00 PM46 °FBroken clouds.15 mph100%30.18 "HgN/A
5:30 PM46 °FBroken clouds.14 mph100%30.18 "HgN/A
5:00 PM48 °FPartly sunny.17 mph94%30.18 "HgN/A
4:30 PM50 °FPartly sunny.18 mph94%30.15 "HgN/A
4:00 PM50 °FMostly cloudy.18 mph94%30.15 "HgN/A
3:30 PM50 °FMostly cloudy.17 mph88%30.15 "HgN/A
3:00 PM50 °FMostly cloudy.17 mph94%30.15 "HgN/A
2:30 PM50 °FMostly cloudy.16 mph100%30.15 "HgN/A
2:00 PM50 °FFog.17 mph100%30.15 "Hg4 mi
1:30 PM50 °FFog.17 mph100%30.12 "Hg2 mi
1:00 PM50 °FFog.17 mph100%30.12 "Hg1 mi
12:30 PM50 °FFog.17 mph100%30.12 "Hg1 mi
12:00 PM50 °FFog.17 mph100%30.12 "Hg1 mi
11:30 AM50 °FFog.17 mph100%30.12 "Hg0 mi
11:00 AM50 °FFog.20 mph100%30.12 "Hg3 mi
10:30 AM50 °FFog.17 mph100%30.12 "Hg1 mi
10:00 AM50 °FFog.18 mph100%30.12 "Hg1 mi
9:30 AM50 °FFog.20 mph100%30.12 "Hg1 mi
9:00 AM50 °FDrizzle. Low clouds.21 mph100%30.12 "Hg2 mi
8:30 AM50 °FDrizzle. Low clouds.20 mph100%30.12 "Hg4 mi
8:00 AM50 °FDrizzle. Low clouds.22 mph100%30.12 "Hg6 mi
7:30 AM50 °FDrizzle. Low clouds.22 mph100%30.12 "Hg6 mi
7:00 AM50 °FFog.23 mph100%30.12 "Hg6 mi
6:30 AM50 °FDrizzle. Low clouds.22 mph100%30.12 "Hg6 mi
6:00 AM50 °FDrizzle. Low clouds.17 mph100%30.15 "HgN/A
5:30 AM50 °FDrizzle. Low clouds.18 mph100%30.15 "HgN/A
5:00 AM50 °FDrizzle. Mostly cloudy.18 mph100%30.15 "HgN/A
4:30 AM50 °FLight rain. Mostly cloudy.20 mph100%30.15 "HgN/A
4:00 AM50 °FLight rain. Mostly cloudy.20 mph100%30.15 "HgN/A
3:30 AM50 °FPartly cloudy.17 mph100%30.18 "HgN/A
3:00 AM50 °FPartly cloudy.17 mph94%30.18 "HgN/A
2:30 AM50 °FPartly cloudy.17 mph94%30.21 "HgN/A
2:00 AM48 °FPassing clouds.16 mph100%30.21 "HgN/A
1:30 AM48 °FFog.17 mph100%30.21 "Hg2 mi
1:00 AM48 °FPartly cloudy.16 mph100%30.21 "Hg1 mi
12:30 AM48 °FDrizzle. Fog.16 mph100%30.24 "Hg1 mi
12:00 AM48 °FDrizzle. Fog.16 mph100%30.24 "Hg2 mi
11:30 PM
Wed, Sep 2
50 °FDrizzle. Fog.15 mph100%30.24 "Hg1 mi
11:00 PM50 °FDrizzle. Fog.14 mph100%30.24 "Hg0 mi
Weather by CustomWeather, © 2015

See weather overviewHow to use our weather pages